User: anonymous   Login
Location: Caltech
(34.1382°N, 118.1253°W)
Time: 13:47:40
(UTC-07:00)
Language:

SPOT 1/Viking Rocket - Orbit

View from above orbital plane
View from above orbital plane
View from above satellite
View from above satellite

Ground track
Ground track

The orbit data is extracted from the following two-line orbital elements,

1 16615U 86019C   16182.83300228  .00000000  00000-0  16876-4 0  9999
2 16615  98.6573 245.9587 0011740   5.5991 109.0659 14.31599449589226
Epoch (UTC): 30 June 2016 19:59:31
Eccentricity: 0.0011740
inclination: 98.6573°
perigee height: 778 km
apogee height: 795 km
right ascension of ascending node: 245.9587°
argument of perigee: 5.5991°
revolutions per day: 14.31599449
mean anomaly at epoch: 109.0659°
orbit number at epoch: 58922

The dashed part of the orbit path shows where the satellite is in the earth's shadow,  

DLR